User: anonymous   Login
Location: Niverville
(49.6028°N, 97.0419°W)
Time: 20:25:12
(UTC-05:00)
Language:

BREEZE-M DEB (TANK) - Orbit

View from above orbital plane
View from above orbital plane
View from above satellite
View from above satellite

Ground track
Ground track

The orbit data is extracted from the following two-line orbital elements,

1 33374U 08044B   15091.15802674  .00002432  00000-0  74520-3 0  9997
2 33374 049.4230 129.6341 5447137 320.6916 022.0395 04.85314567114693
Epoch (UTC): 01 April 2015 03:47:33
Eccentricity: 0.5447137
inclination: 49.4230°
perigee height: 331 km
apogee height: 16385 km
right ascension of ascending node: 129.6341°
argument of perigee: 320.6916°
revolutions per day: 4.85314567
mean anomaly at epoch: 22.0395°
orbit number at epoch: 11469

The dashed part of the orbit path shows where the satellite is in the earth's shadow,  

DLR